Terug naar catalogus

STARLINK-2536

ActiefCommunicatieVLEO
NORAD 48310·PAYLOAD·🇺🇸 United States

Gelanceerd Apr 29, 2021 vanaf Cape Canaveral Space Force Station

Loading…

Volgende Passages (komende 24 uur)

TLE

VersSource: CelesTrak SupGP

Epoch: Sep 14, 2026, 21:45 UTC

1 48310C 21036AL  26257.90673611  .00034727  00000+0  11167-2 0  2570
2 48310  53.1566 290.8493 0001265  91.6290 148.2731 15.31685575    13

Volg STARLINK-2536 in realtime met AllMySat

Download on the App Store